Torna al catalogo

FENGYUN 1C DEB

AttivoSSO
NORAD 31917·DEBRIS·🇨🇳 China

Lanciato May 10, 1999 da Taiyuan Satellite Launch Center

Loading…

Prossimi Passaggi (prossime 24 ore)

TLE

ObsoletoSource: Space-Track

Epoca: Sep 1, 2026, 17:24 UTC

1 31917U 99025CLU 26244.72553828  .00000541  00000-0  15819-3 0  9991
2 31917  98.3774 235.9616 0186780 224.3355 313.2064 14.38478114  1378

Traccia FENGYUN 1C DEB in tempo reale con AllMySat

Download on the App Store